[[{"header":{"parameterUnit":"m.s-1","parameterCategory":1,"la1":30.2991,"la2":30.254,"lo1":-89.0895,"lo2":-89.0444,"dy":0.0017,"dx":0.0017,"nx":28,"ny":28,"refTime":"2025-03-25T03:00:00:Z","depth":0,"parameterNumber":2,"parameterNumberName":"U-component_of_WINDS"},"data":[0,0,0,0,0,0,0,0,0,0,0,0,0,0,0,0,0,0,0,0,0,0,0,0,0,0,0,0,0,0,0,0,0,0,0,0,0,0,0,0,0,0,0,0,0,0,0,0,0,0,0,0,0,0,0,0,0,0,0.9656,0.9657,0,0.9754,0.9755,0.9756,0.9782,0.9782,0.9781,0.9781,0.9882,0.9885,0.9889,0,0,0,0,0,0,0,0,0,0,0,0,0,0.9488,0.9491,0.9655,0.9657,0.9658,0.9754,0.9755,0.9757,0.9782,0.9782,0.9781,0.978,0.9881,0.9885,0.9889,0,0,0,0,0,0,0,0,0,0,0,0,0,0.9571,0.9492,0.9655,0.9682,0.9686,0.9754,0.9755,0.9757,0.9783,0.9782,0.9781,0.978,0.988,0.9885,0.9889,0.9938,0,0,0.9904,0.9906,0,0,0,0,0,0,0,0,0.9566,0.9577,0.9677,0.9681,0.9685,0.9755,0.9733,0.9818,0.9783,0.9746,0.9781,0.978,0.9841,0.9849,0.9869,0.9942,0.9947,0.9905,0.9908,0.991,0.9911,0,0,0,0,0,0,0,0.956,0.9573,0.9695,0.9679,0.9683,0.9689,0.97,0.975,0.9797,0.9749,0.9751,0.9762,0.9842,0.9864,0.9872,0.9948,0.9905,0.9909,0.9912,0.9914,1.0063,1.0064,0,0,0,0,0,0,0.955,0.9568,0.9691,0.9697,0.9622,0.9693,0.9705,0.9733,0.9797,0.9805,0.9763,0.9763,0.9856,0.9866,0.9875,0.9934,0.991,0.9914,0.9917,1.0062,1.0063,1.0064,0,0,0,0,0,0,0.9546,0.9561,0.9687,0.9633,0.965,0.9697,0.9728,0.9736,0.9758,0.9807,0.9816,0.9777,0.9856,0.9869,0.9921,0.9938,0.9917,0.9921,1.0061,1.0062,1.0064,1.0053,0,0,0,0,0,0,0.9541,0.9559,0.9579,0.9634,0.9653,0.9732,0.9729,0.9738,0.9766,0.9767,0.9822,0.9831,0.9856,0.9914,0.9926,0.9945,0.9925,1.006,1.0062,1.0063,1.0052,1.0054,1.0056,0,0,0,0,0,0.9535,0.9572,0.958,0.9594,0.9678,0.9733,0.9744,0.9772,0.9767,0.9786,0.9818,0.9829,0.9934,0.9919,0.9933,0.9953,1.0059,1.0061,1.0063,1.0051,1.0054,1.0056,0,0,0,0,0,0,0.9519,0.958,0.9589,0.9645,0.9683,0.9737,0.9763,0.9774,0.9816,0.9815,0.9849,0.9861,0.9911,0.9938,0.9919,1.0002,0.9996,1.0002,0.9983,0.9985,0.9987,0.9979,0.9929,0,0,0,0,0,0.9522,0.9562,0.9613,0.9657,0.9676,0.9716,0.9741,0.9759,0.9801,0.9817,0.9853,0.9893,0.9934,0.9962,1.0003,1.0056,1.0068,1.0077,1.0078,1.008,1.0084,1.0112,1.0116,1.0072,1.0072,1.0072,0,0,0.9528,0.9566,0.959,0.9655,0.9687,0.9727,0.973,0.9772,0.9802,0.9824,0.9876,0.9903,0.9949,1.0001,1.0027,1.0025,1.0098,1.0083,1.0083,1.0087,1.0114,1.0119,1.0122,1.0074,1.0073,1.0073,0,0,0.956,0.9593,0.9633,0.9665,0.9713,0.9739,0.9748,0.98,0.9818,0.987,0.9887,0.9923,0.9995,1.0026,1.0052,1.0093,1.0104,1.0105,1.0115,1.0141,1.0145,1.0148,1.0161,1.0166,1.0109,1.0109,1.0109,0,0.9561,0.9622,0.9652,0.9693,0.972,0.9741,0.9781,0.981,0.987,0.9888,0.9885,0.9974,1.0007,1.0066,1.0076,1.0097,1.0107,1.0099,1.0142,1.0146,1.0149,1.0162,1.0167,1.0109,1.0109,1.0109,1.0109,0,0.9621,0.9663,0.9689,0.9745,0.9775,0.9816,0.985,0.9877,0.9892,0.9918,0.9969,1.0009,1.0058,1.0074,1.009,1.0135,1.0132,1.0135,1.0131,1.0152,1.0165,1.017,1.0109,1.0109,1.0109,1.0109,0,0,0.9646,0.9716,0.9725,0.975,0.9804,0.9836,0.9876,0.9924,0.9945,0.9985,1.0019,1.0078,1.0081,1.0109,1.0129,1.0153,1.018,1.0153,1.0154,1.0155,1.023,1.0226,1.0232,1.0188,1.0189,1.019,1.0226,0,0.9684,0.9757,0.9783,0.9843,0.9881,0.99,0.9935,0.9971,0.9996,1.0031,1.0058,1.0099,1.01,1.0117,1.0142,1.0172,1.0195,1.0169,1.0219,1.022,1.0206,1.0239,1.0236,1.0268,1.0231,1.0232,1.0232,0,0.9737,0.9777,0.984,0.9887,0.9903,0.9934,0.9978,1.0012,1.0053,1.0069,1.01,1.0117,1.0159,1.0151,1.0209,1.019,1.0212,1.0229,1.0231,1.0236,1.0227,1.0244,1.0279,1.0283,1.0241,1.024,1.0239,0,0.9747,0.9816,0.9862,0.9883,0.9939,0.996,0.9984,1.0024,1.005,1.0089,1.0105,1.0148,1.0172,1.0204,1.0232,1.0224,1.0286,1.0281,1.03,1.0299,1.0312,1.0311,1.035,1.0327,1.0327,1.0327,1.0327,0,0.9786,0.9823,0.9867,0.9895,0.9937,0.9967,1.0007,1.0033,1.0068,1.0101,1.012,1.0151,1.0186,1.0221,1.0243,1.0286,1.0296,1.031,1.0315,1.0308,1.0306,1.0322,1.032,1.0328,1.0328,1.0327,1.0327,0,0.9804,0.9835,0.9887,0.9935,0.9948,0.9977,1.0018,1.0045,1.007,1.0111,1.0122,1.0161,1.0203,1.0234,1.0288,1.0302,1.0348,1.0354,1.0334,1.0336,1.0353,1.035,1.0403,1.0411,1.0383,1.0383,1.0384,0,0.9826,0.9856,0.9907,0.993,0.9954,0.9991,1.0017,1.0047,1.0073,1.012,1.0142,1.0184,1.022,1.0285,1.0318,1.0359,1.0365,1.0381,1.0372,1.0363,1.0364,1.0362,1.0364,1.0382,1.0382,1.0383,1.0383,0,0.9862,0.9875,0.9912,0.9954,0.9984,1.0019,1.0053,1.0071,1.0107,1.0135,1.0177,1.0205,1.0259,1.03,1.0344,1.0369,1.0381,1.0385,1.0391,1.0384,1.0371,1.0377,1.0336,1.0384,1.0384,1.0384,1.0384,1.0384,0.9882,0.9908,0.9948,0.9988,1.0016,1.0048,1.0076,1.0103,1.0139,1.0185,1.02,1.0243,1.0281,1.0341,1.0366,1.0399,1.0399,1.0409,1.0411,1.0413,1.0411,1.0365,1.0408,1.0408,1.0408,1.0408,1.0408,0,0.9918,0.9944,0.998,1.0027,1.0058,1.0067,1.0105,1.013,1.0168,1.0202,1.0236,1.0284,1.0323,1.0358,1.04,1.042,1.0426,1.0429,1.0428,1.0433,1.041,1.04,1.0423,1.0423,1.0423,1.0423,1.0423,1.0423,0.994,0.9983,1.0001,1.0059,1.0085,1.0127,1.0147,1.0176,1.0203,1.0255,1.0288,1.0311,1.0345,1.0388,1.0425,1.0434,1.0448,1.0449,1.046,1.0437,1.0435,1.0433,1.0424,1.0452,1.0452,1.048,1.048,1.0481]},{"header":{"parameterUnit":"m.s-1","parameterCategory":1,"la1":30.2991,"la2":30.254,"lo1":-89.0895,"lo2":-89.0444,"dy":0.0017,"dx":0.0017,"nx":28,"ny":28,"refTime":"2025-03-25T03:00:00:Z","depth":0,"parameterNumber":3,"parameterNumberName":"V-component_of_WINDS"},"data":[0,0,0,0,0,0,0,0,0,0,0,0,0,0,0,0,0,0,0,0,0,0,0,0,0,0,0,0,0,0,0,0,0,0,0,0,0,0,0,0,0,0,0,0,0,0,0,0,0,0,0,0,0,0,0,0,0,0,3.4325,3.4324,0,3.4286,3.4286,3.4285,3.4248,3.4248,3.4247,3.4247,3.4204,3.4203,3.4202,0,0,0,0,0,0,0,0,0,0,0,0,0,3.4364,3.4364,3.4325,3.4324,3.4324,3.4286,3.4286,3.4285,3.4248,3.4248,3.4247,3.4247,3.4204,3.4203,3.4202,0,0,0,0,0,0,0,0,0,0,0,0,0,3.4338,3.4363,3.4325,3.4301,3.4299,3.4286,3.4286,3.4285,3.4248,3.4248,3.4247,3.4246,3.4204,3.4203,3.4202,3.4209,0,0,3.4199,3.4198,0,0,0,0,0,0,0,0,3.434,3.4337,3.4305,3.4303,3.43,3.4271,3.4284,3.4259,3.4249,3.4267,3.4247,3.4246,3.4227,3.4224,3.4218,3.4207,3.4205,3.4199,3.4198,3.4198,3.4197,0,0,0,0,0,0,0,3.4342,3.4338,3.4309,3.4305,3.4301,3.4291,3.4287,3.4279,3.4251,3.4266,3.4263,3.4259,3.4225,3.4219,3.4217,3.4205,3.4199,3.4198,3.4197,3.4197,3.4198,3.4198,0,0,0,0,0,0,3.4348,3.434,3.4311,3.4308,3.4319,3.4291,3.4286,3.4281,3.4251,3.4246,3.426,3.4257,3.4221,3.4218,3.4215,3.4221,3.4198,3.4197,3.4196,3.4197,3.4198,3.4198,0,0,0,0,0,0,3.4349,3.4345,3.4312,3.4323,3.4318,3.4291,3.4286,3.4281,3.4275,3.4247,3.4241,3.4259,3.422,3.4216,3.4211,3.4219,3.4196,3.4195,3.4196,3.4197,3.4198,3.4233,0,0,0,0,0,0,3.435,3.4346,3.4349,3.4324,3.4318,3.431,3.4286,3.428,3.4273,3.427,3.4244,3.4239,3.422,3.4213,3.421,3.4217,3.4194,3.4195,3.4197,3.4198,3.4231,3.4235,3.4239,0,0,0,0,0,3.4351,3.436,3.4349,3.4346,3.4321,3.4311,3.4307,3.4285,3.4274,3.4276,3.4258,3.424,3.4219,3.4213,3.4209,3.4216,3.4195,3.4196,3.4198,3.4229,3.4234,3.4238,0,0,0,0,0,0,3.4385,3.4356,3.4344,3.4345,3.4331,3.4304,3.4307,3.4291,3.4279,3.4276,3.4249,3.4243,3.4241,3.4228,3.4222,3.4221,3.4204,3.4205,3.4229,3.4234,3.4238,3.424,3.4194,0,0,0,0,0,3.4393,3.4388,3.4362,3.4365,3.4359,3.4334,3.4329,3.4313,3.4297,3.429,3.4272,3.4256,3.4245,3.4239,3.4228,3.4229,3.4222,3.4232,3.4236,3.4239,3.424,3.4239,3.4242,3.4203,3.4203,3.4203,0,0,3.4409,3.4392,3.439,3.4371,3.4359,3.4353,3.4329,3.4324,3.4319,3.4289,3.4283,3.4269,3.4249,3.4247,3.4246,3.4236,3.4249,3.4241,3.4244,3.4243,3.4241,3.4244,3.4248,3.4204,3.4204,3.4204,0,0,3.4434,3.4421,3.4422,3.441,3.4391,3.4375,3.4375,3.4352,3.4342,3.4336,3.4313,3.4306,3.4289,3.4276,3.4267,3.4287,3.427,3.4284,3.4304,3.4303,3.4306,3.4309,3.4316,3.4318,3.4285,3.4286,3.4286,0,3.4455,3.4446,3.4424,3.4421,3.4413,3.4387,3.4387,3.4376,3.4354,3.4349,3.4339,3.4317,3.4302,3.4296,3.4302,3.4295,3.4294,3.4287,3.4308,3.431,3.4312,3.4318,3.4321,3.4287,3.4287,3.4287,3.4287,0,3.4473,3.4467,3.447,3.4451,3.4444,3.4442,3.4419,3.4414,3.4399,3.4383,3.4377,3.4358,3.4343,3.434,3.4325,3.4332,3.4327,3.4313,3.4296,3.4318,3.4323,3.4326,3.429,3.4289,3.4289,3.4288,0,0,3.4518,3.4487,3.4489,3.4479,3.4457,3.4452,3.4449,3.4435,3.443,3.4416,3.4412,3.4399,3.4386,3.4376,3.4359,3.4359,3.4375,3.4344,3.4343,3.435,3.4381,3.4391,3.4395,3.4364,3.4364,3.4365,3.4383,0,3.4539,3.4533,3.4513,3.4512,3.4506,3.4482,3.4479,3.4464,3.445,3.4442,3.4425,3.4416,3.44,3.4393,3.4392,3.4374,3.4381,3.4372,3.4359,3.4359,3.4364,3.4397,3.4408,3.4426,3.4385,3.4385,3.4385,0,3.4562,3.4551,3.455,3.4528,3.4525,3.4523,3.4508,3.4501,3.4484,3.4473,3.4463,3.4444,3.4439,3.4423,3.4414,3.4409,3.4402,3.4392,3.4392,3.439,3.4373,3.4395,3.4431,3.4434,3.4388,3.4388,3.4388,0,3.4594,3.4578,3.4576,3.4569,3.4544,3.4543,3.4532,3.4514,3.4507,3.4494,3.4489,3.4475,3.4467,3.4456,3.4434,3.4425,3.4428,3.441,3.4418,3.4418,3.4418,3.4419,3.4454,3.4416,3.4416,3.4416,3.4416,0,3.4619,3.4619,3.459,3.4588,3.4588,3.4565,3.4564,3.4551,3.4536,3.453,3.4508,3.4503,3.4475,3.4466,3.4449,3.4444,3.4441,3.4431,3.4426,3.4433,3.4434,3.4427,3.4425,3.4416,3.4416,3.4416,3.4416,0,3.4654,3.4635,3.463,3.4607,3.4601,3.4601,3.4581,3.4578,3.4562,3.4556,3.4553,3.4528,3.4517,3.4495,3.4477,3.4465,3.4464,3.4456,3.447,3.4467,3.4475,3.4474,3.4506,3.4509,3.447,3.4471,3.4471,0,3.4671,3.467,3.4647,3.4643,3.4633,3.4626,3.4619,3.4596,3.4589,3.457,3.4569,3.4557,3.4545,3.4529,3.4508,3.4494,3.4486,3.4498,3.4483,3.449,3.4485,3.4485,3.4484,3.4501,3.4501,3.4502,3.4502,0,3.4702,3.4693,3.4684,3.4672,3.4664,3.4654,3.4641,3.4639,3.4613,3.4606,3.4595,3.4587,3.4569,3.4557,3.454,3.4528,3.451,3.4507,3.4508,3.4514,3.4522,3.4517,3.4478,3.4506,3.4506,3.4505,3.4505,3.4505,3.4728,3.4726,3.471,3.4701,3.469,3.4679,3.4675,3.466,3.4651,3.4636,3.4623,3.4613,3.4595,3.4571,3.456,3.4551,3.4543,3.4544,3.4544,3.4544,3.4547,3.4524,3.4548,3.4548,3.4548,3.4548,3.4547,0,3.4757,3.4746,3.4738,3.4722,3.4715,3.4701,3.4687,3.4681,3.4674,3.4659,3.4649,3.4636,3.4624,3.4603,3.4589,3.4586,3.4577,3.4583,3.4582,3.4579,3.4556,3.4556,3.459,3.459,3.459,3.459,3.459,3.459,3.4772,3.4769,3.4758,3.4749,3.4737,3.4728,3.4721,3.4711,3.4699,3.4686,3.4677,3.4664,3.4646,3.4631,3.4619,3.4613,3.4608,3.4616,3.4607,3.4585,3.4581,3.4577,3.4578,3.4615,3.4615,3.4632,3.4632,3.4632]}]]